Showing default

ARVAKER-2, 64567

Orbit data source: Space-Track

ARVAKER-2, 64567 is a payload satellite owned by NSC (NO) in SSO that was launched on Mon, 23 Jun 2025 UTC via an FALCON 9 launch vehicle from the Air Force Western Test Range (AFWTR). Payload-class satellites include a variety of spacecraft equipped with specific instruments for various scientific and technological missions. These include communications satellites like Starlink; space stations such as the ISS; scientific satellites like the Hubble; Earth observation satellites from companies like Planet Labs, Umbra, and HawkEye 360; GPS; miniature CubeSats for education and research; and military/defense satellites.

Loading next visibility...
Identifier
64567, 2025-135AR
Orbit
SSO
Country
Flag of NONO / NOR
Related business
Manufacturer
NanoAvionics
Mission
Operational Commercial Imaging
Bus & Motor
MP42, Unknown motor
Mass
~100 kg wet, ~100 kg dry
Launch date (UTC)
2025-06-23 (5 months ago)
Launch vehicle
FALCON 9
Launch site
Air Force Western Test Range (AFWTR)
Object type
Payload
Rocket body
Debris
Shape & HBR
Box + 2 Pan, 0.5 m
Radar Cross Section
0.146 m², Medium (>0.1 m² and < 1m²)

Expand to show TLE details & history
Last TLE update: 1 day ago

TLE from 1 day ago
0 ARVAKER-2
1 64567U 25135AR  25312.86051219  .00006045  00000-0  60081-3 0  9992
2 64567  97.7596  64.9397 0001044  29.9329 330.1950 14.92051512 21008
Epoch: 2025-11-08T20:39Z
TLE epoch observation values (Epoch: 2025-11-08T20:39:08.253Z)
Latitude
0.00005°
Longitude
66.87124°
Altitude
593.95 km
Speed
7.563 km/s
True Right ascension
04h 19m 45s
True Declination
0° 00' 00"
Sunlit
Object was in full shadow at epoch
Visualization orbit readout
Latitude
Unknown
Longitude
Unknown
Altitude
Unknown
Speed
Unknown
Apparent Right ascension
Unknown
Apparent Declination
Unknown
Sunlit
N/A
Visualization observer readout
Local Sidereal Time
18:22:23
Azimuth
Unknown
Elevation
Unknown
Doppler factor
Unknown
Orbital elements
Apogee altitude
589.285 km
Perigee altitude
587.831 km
Semi-major axis
6,966.695 km
Eccentricity
0.0001
Inclination
97.7596°
RAAN
64.9397°
Arg. of periapsis
29.9329°
True anomaly
330.18905°
Mean anomaly
330.195°
Eccentric anomaly
330.19203°
Mean motion
3.73253 °/min
Orbital period
96.45 mins
BSTAR
0.00060081
Loading maneuver chart data...
Computing Atmospheric mass density...
Loading historical data...
Loading historical data...
Loading historical data...
Loading historical data...
Loading historical data...
Loading historical data...
Loading historical data...

Documentation

Showing up to 5 results
|